Date String (YYYY-MM-DD hh:mm:ss) UTC,Instrument flags,Ambient pressure (hPa),Sample flow (lpm),Bypass flow (lpm),Sample temperature (°C),Ambient temperature (°C),ASC tube jacket temperature (°C),LED temperature (°C),Box temperature (°C),Sample RH (%),Span deviation,Mass concentration (μg/m³),Mass concentration (μg/m³),Mass concentration (μg/m³)
DateTimeUTC,F1_M11,P_M11,Q1_M11,Q2_M11,T1_M11,T2_M11,T3_M11,T4_M11,T5_M11,U1_M11,ZSPAN_M11,X0_M11,X2_M11,X1_M11
2022-04-09 15:00:00,,0818.9,5.00,0.00,27.2,26.1,00.0,36.1,28.9,07.8,0000.0,0006.93,0003.27,0002.26
2022-04-09 15:01:00,,0819.0,4.99,0.00,27.2,26.2,00.0,36.1,28.9,08.0,0000.0,0006.78,0003.24,0002.25
2022-04-09 15:02:00,,0819.0,5.01,0.00,27.2,26.2,00.0,36.1,28.9,08.1,0000.0,0006.78,0003.23,0002.25
2022-04-09 15:03:00,,0818.9,4.99,0.00,27.2,26.1,00.0,36.1,28.9,08.0,0000.0,0006.93,0003.25,0002.27
2022-04-09 15:04:00,,0818.9,5.01,0.00,27.2,26.2,00.0,36.1,28.9,07.8,0000.0,0006.09,0003.27,0002.27
2022-04-09 15:05:00,,0818.9,5.00,0.00,27.2,26.2,00.0,36.1,28.9,07.7,0000.0,0006.13,0003.29,0002.28
2022-04-09 15:06:00,,0818.9,4.99,0.00,27.2,26.2,00.0,36.1,28.9,07.9,0000.0,0006.07,0003.30,0002.29
2022-04-09 15:07:00,,0819.0,4.99,0.00,27.2,26.2,00.0,36.1,29.0,07.7,0000.0,0006.43,0003.30,0002.28
2022-04-09 15:08:00,,0818.9,5.00,0.00,27.2,26.2,00.0,36.1,29.0,07.9,0000.0,0006.68,0003.28,0002.26
2022-04-09 15:09:00,,0818.9,5.02,0.00,27.2,26.2,00.0,36.1,29.0,07.9,0000.0,0006.88,0003.32,0002.26
2022-04-09 15:10:00,,0818.9,4.98,0.00,27.2,26.2,00.0,36.1,29.0,07.8,0000.0,0007.09,0003.37,0002.27
2022-04-09 15:11:00,,0818.9,5.00,0.00,27.3,26.3,00.0,36.1,29.0,08.0,0000.0,0007.04,0003.37,0002.28
2022-04-09 15:12:00,,0818.9,5.00,0.00,27.3,26.3,00.0,36.2,29.1,08.1,0000.0,0007.80,0003.38,0002.29
2022-04-09 15:13:00,,0818.9,4.99,0.00,27.3,26.3,00.0,36.2,29.0,08.0,0000.0,0007.99,0003.42,0002.29
2022-04-09 15:14:00,,0818.8,5.01,0.00,27.3,26.3,00.0,36.2,29.0,07.8,0000.0,0007.88,0003.40,0002.28
2022-04-09 15:15:00,,0818.8,5.00,0.00,27.3,26.3,00.0,36.2,29.1,07.9,0000.0,0007.84,0003.37,0002.28
2022-04-09 15:16:00,,0818.8,5.00,0.00,27.3,26.3,00.0,36.2,29.1,07.8,0000.0,0007.72,0003.32,0002.26
2022-04-09 15:17:00,,0818.8,5.01,0.00,27.3,26.3,00.0,36.2,29.1,08.0,0000.0,0007.67,0003.28,0002.25
2022-04-09 15:18:00,,0818.8,5.00,0.00,27.3,26.3,00.0,36.2,29.1,08.0,0000.0,0007.47,0003.27,0002.24
2022-04-09 15:19:00,,0818.8,5.00,0.00,27.3,26.3,00.0,36.2,29.1,07.8,0000.0,0007.36,0003.25,0002.23
2022-04-09 15:20:00,,0818.8,5.00,0.00,27.3,26.3,00.0,36.2,29.1,07.8,0000.0,0007.35,0003.24,0002.24
2022-04-09 15:21:00,,0818.8,5.01,0.00,27.3,26.3,00.0,36.2,29.1,07.8,0000.0,0007.28,0003.21,0002.23
2022-04-09 15:22:00,,0818.8,5.00,0.00,27.3,26.3,00.0,36.2,29.1,07.8,0000.0,0007.38,0003.25,0002.23
2022-04-09 15:23:00,,0818.8,5.00,0.00,27.3,26.4,00.0,36.2,29.1,08.0,0000.0,0006.94,0003.28,0002.23
2022-04-09 15:24:00,,0818.8,4.99,0.00,27.3,26.3,00.0,36.2,29.1,07.9,0000.0,0006.71,0003.26,0002.23
2022-04-09 15:25:00,,0818.8,5.02,0.00,27.3,26.3,00.0,36.3,29.1,08.0,0000.0,0006.60,0003.26,0002.22
2022-04-09 15:26:00,,0818.8,4.98,0.00,27.4,26.3,00.0,36.3,29.1,08.1,0000.0,0006.45,0003.26,0002.22
2022-04-09 15:27:00,,0818.8,5.01,0.00,27.4,26.3,00.0,36.3,29.1,07.9,0000.0,0006.58,0003.27,0002.23
2022-04-09 15:28:00,,0818.8,5.00,0.00,27.4,26.3,00.0,36.3,29.1,07.8,0000.0,0006.80,0003.31,0002.23
2022-04-09 15:29:00,,0818.7,4.99,0.00,27.4,26.3,00.0,36.3,29.1,07.7,0000.0,0007.73,0003.30,0002.22
2022-04-09 15:30:00,,0818.8,4.99,0.00,27.4,26.3,00.0,36.3,29.1,07.6,0000.0,0007.61,0003.29,0002.23
2022-04-09 15:31:00,,0818.7,4.99,0.00,27.4,26.2,00.0,36.3,29.2,07.5,0000.0,0007.58,0003.29,0002.21
2022-04-09 15:32:00,,0818.8,5.01,0.00,27.4,26.3,00.0,36.3,29.2,07.4,0000.0,0007.68,0003.27,0002.19
2022-04-09 15:33:00,,0818.7,5.00,0.00,27.4,26.3,00.0,36.3,29.3,07.8,0000.0,0007.81,0003.28,0002.21
2022-04-09 15:34:00,,0818.7,5.00,0.00,27.5,26.3,00.0,36.3,29.3,07.5,0000.0,0007.53,0003.25,0002.20
2022-04-09 15:35:00,,0818.6,4.99,0.00,27.5,26.3,00.0,36.3,29.3,07.8,0000.0,0007.46,0003.23,0002.19
2022-04-09 15:36:00,,0818.5,5.01,0.00,27.5,26.3,00.0,36.3,29.3,07.7,0000.0,0007.59,0003.25,0002.20
2022-04-09 15:37:00,,0818.5,5.00,0.00,27.5,26.3,00.0,36.3,29.3,07.4,0000.0,0007.82,0003.28,0002.20
2022-04-09 15:38:00,,0818.6,4.99,0.00,27.5,26.4,00.0,36.4,29.3,07.3,0000.0,0008.06,0003.29,0002.20
2022-04-09 15:39:00,,0818.5,5.00,0.00,27.5,26.4,00.0,36.4,29.3,07.5,0000.0,0007.95,0003.25,0002.21
2022-04-09 15:40:00,,0818.5,5.01,0.00,27.6,26.4,00.0,36.4,29.4,07.5,0000.0,0007.11,0003.23,0002.22
2022-04-09 15:41:00,,0818.5,4.99,0.00,27.6,26.4,00.0,36.4,29.4,07.3,0000.0,0007.06,0003.23,0002.22
2022-04-09 15:42:00,,0818.5,5.02,0.00,27.6,26.4,00.0,36.4,29.4,07.0,0000.0,0007.14,0003.24,0002.23
2022-04-09 15:43:00,,0818.4,5.00,0.00,27.6,26.5,00.0,36.4,29.4,07.3,0000.0,0008.02,0003.27,0002.25
2022-04-09 15:44:00,,0818.4,5.00,0.00,27.6,26.5,00.0,36.4,29.4,07.1,0000.0,0008.18,0003.23,0002.25
2022-04-09 15:45:00,,0818.4,5.00,0.00,27.6,26.5,00.0,36.5,29.4,07.4,0000.0,0008.22,0003.23,0002.24
2022-04-09 15:46:00,,0818.4,5.01,0.00,27.7,26.5,00.0,36.5,29.4,07.4,0000.0,0008.30,0003.27,0002.26
2022-04-09 15:47:00,,0818.4,5.00,0.00,27.7,26.5,00.0,36.5,29.5,07.3,0000.0,0008.30,0003.28,0002.25
2022-04-09 15:48:00,,0818.4,5.00,0.00,27.7,26.6,00.0,36.5,29.5,07.2,0000.0,0008.21,0003.27,0002.25
2022-04-09 15:49:00,,0818.4,4.99,0.00,27.7,26.6,00.0,36.5,29.5,07.2,0000.0,0008.04,0003.30,0002.25
2022-04-09 15:50:00,,0818.4,4.99,0.00,27.7,26.7,00.0,36.5,29.5,07.4,0000.0,0008.17,0003.35,0002.24
2022-04-09 15:51:00,,0818.4,5.02,0.00,27.7,26.7,00.0,36.6,29.6,07.3,0000.0,0008.58,0003.39,0002.24
2022-04-09 15:52:00,,0818.4,4.99,0.00,27.8,26.8,00.0,36.6,29.6,07.0,0000.0,0008.85,0003.41,0002.26
2022-04-09 15:53:00,,0818.4,5.01,0.00,27.8,26.8,00.0,36.6,29.6,06.9,0000.0,0009.31,0003.41,0002.25
2022-04-09 15:54:00,,0818.4,4.98,0.00,27.8,26.8,00.0,36.6,29.6,06.9,0000.0,0008.48,0003.42,0002.25
2022-04-09 15:55:00,,0818.4,5.01,0.00,27.8,26.8,00.0,36.6,29.6,07.0,0000.0,0008.43,0003.49,0002.28
2022-04-09 15:56:00,,0818.4,5.00,0.00,27.8,26.9,00.0,36.6,29.7,07.1,0000.0,0008.67,0003.52,0002.30
2022-04-09 15:57:00,,0818.4,4.99,0.00,27.8,26.9,00.0,36.7,29.7,07.2,0000.0,0008.63,0003.51,0002.31
2022-04-09 15:58:00,,0818.4,4.99,0.00,27.9,26.9,00.0,36.7,29.7,06.9,0000.0,0008.51,0003.49,0002.33
2022-04-09 15:59:00,,0818.4,5.00,0.00,27.9,26.9,00.0,36.7,29.7,06.9,0000.0,0008.61,0003.51,0002.35
